Simultaneous Nadir Overpasses (SNOs) Predictions

Prediction of SNOs over PacNW region [( 10.00, 139.50) to ( 22.70, 165.60)] between AQUA and NPP Satellites:

Table of predicted SNOs over PacNW region for the next 30.0 days since TLE Epoch: 2/18/2017
Index Date (AQUA) Time (AQUA) AQUA Lat,Lon Date (NPP) Time (NPP) NPP Lat,Lon Distance(km) Time Diff (sec)
1 02/20/2017 03:31:47 22.70, 147.51 02/20/2017 03:28:17 25.78, 144.94 430.59 210
2 02/25/2017 15:59:25 22.59, 147.48 02/25/2017 16:01:48 23.25, 144.55 309.46 143
3 03/05/2017 15:10:01 22.60, 159.85 03/05/2017 15:10:58 23.20, 157.24 275.20 57
4 03/08/2017 03:31:52 22.65, 147.52 03/08/2017 03:28:23 26.83, 144.71 544.10 209
5 03/13/2017 15:59:30 22.61, 147.50 03/13/2017 16:01:37 23.24, 144.59 306.38 127




NCC Satellite Simultaneous Nadir Overpasses (SNOs) Prediction Service
